Location: Chequamegon National Forest
(46.1070°N, 90.8420°W)
Time: 11:01:33
(UTC-05:00)

Daily predictions for brighter satellites

Satellite Brightness Start Highest point End
(mag) Time Altitude Azimuth Time Altitude Azimuth Time Altitude Azimuth
H-2A R/B 3.2 20:05:24 10° SE 20:09:08 43° ENE 20:12:54 10° N
Resurs 1-3 3.7 20:05:50 10° SSE 20:10:13 86° WSW 20:14:38 10° NNW
RESURS DK-1 2.4 20:07:48 10° NNW 20:11:57 65° ENE 20:16:04 10° SE
Cosmos 2123 Rocket 4.2 20:06:56 10° N 20:13:09 82° W 20:19:19 10° S
Cosmos 1937 Rocket 3.7 20:08:42 10° NNW 20:13:56 57° ENE 20:19:08 10° SE
Cosmos 2263 Rocket 4.0 20:12:15 10° N 20:15:42 16° NE 20:19:08 10° E
SeaSat 1 4.4 20:11:49 10° NNE 20:16:15 34° NW 20:20:39 10° WSW
Envisat 4.3 20:13:34 10° ESE 20:17:29 23° ENE 20:21:26 10° NNE
CZ-4 DEB 4.4 20:15:21 10° ESE 20:17:34 18° ENE 20:19:47 10° NNE
Tiangong 1 2.6 20:15:18 10° WSW 20:17:57 26° SSW 20:20:36 10° SE
Cosmos 990 Rocket 4.4 20:14:39 10° NNW 20:19:45 48° ENE 20:24:47 10° SE
SL-24 R/B - RUBIN 2 4.5 20:15:52 10° SSW 20:21:52 86° ESE 20:28:30 10° NE
Helios 1A 4.2 20:21:11 10° S 20:25:11 45° W 20:29:16 10° NNW
Cosmos 2227 Rocket 3.8 20:20:13 10° NW 20:25:20 36° WSW 20:30:26 10° S
Cosmos 1500 3.4 20:22:58 10° SSE 20:26:35 48° E 20:30:15 10° NNE
Cosmos 2298 Rocket 4.2 20:22:05 10° NNW 20:27:25 77° WSW 20:32:43 10° SSE
Cosmos 1340 3.6 20:24:24 10° N 20:27:48 30° ENE 20:31:10 10° SE
Cosmos 2322 Rocket 3.6 20:28:25 10° SE 20:31:50 17° E 20:35:17 10° ENE
ERS-1 Rocket 3.6 20:29:28 10° SE 20:34:04 38° ENE 20:38:43 10° N
EO 1 Delta rocket 4.0 20:30:01 10° NNE 20:34:49 77° E 20:40:28 10° S
CZ-2D R/B 3.4 20:33:08 10° S 20:37:01 82° WSW 20:40:57 10° NNW
Cosmos 2297 Rocket 3.6 20:34:41 10° NW 20:39:52 38° WSW 20:45:03 10° S
Resurs 01 Rocket 3.5 20:38:05 10° SSW 20:42:03 32° W 20:46:04 10° NNW
Cosmos 1975 3.2 20:38:32 10° SSW 20:42:38 70° W 20:46:44 10° N
Cosmos 1726 Rocket 4.5 20:40:45 10° SSE 20:44:31 28° E 20:48:19 10° NNE
Cosmos 1763 Rocket 3.7 20:41:29 10° S 20:46:15 43° ESE 20:51:02 10° NE
Cosmos 1515 4.4 20:45:24 10° NNW 20:49:12 57° W 20:52:56 10° S
Cosmos 2360 4.5 20:48:26 10° S 20:53:50 45° ESE 20:59:16 10° NE
Cosmos 2227 4.2 20:49:07 10° NNW 20:54:54 79° ENE 20:59:59 13° SSE
Cosmos 1825 Rocket 3.5 20:52:53 10° N 20:57:18 70° E 21:01:33 11° SSE
BREEZE-M DEB (TANK) 1.5 20:55:21 10° WNW 20:57:26 84° SSW 20:59:21 23° ESE
USA 215 4.4 20:53:30 10° ENE 20:59:21 36° N 21:05:12 10° NW
ASTEX 1 4.2 20:58:27 10° NNE 21:02:53 31° E 21:05:15 21° SE
Meteor 1-21 4.3 20:57:10 10° N 21:02:58 72° ENE 21:08:38 11° SSE
Cosmos 405 Rocket 4.3 21:01:31 10° NNE 21:04:07 18° ENE 21:04:30 17° ENE
Cosmos 1125 Rocket 3.8 21:00:19 10° NNW 21:05:23 49° ENE 21:08:30 22° SE
Cosmos 1802 Rocket 4.0 21:02:08 10° S 21:08:29 70° E 21:14:54 10° NNE
Cosmos 2228 4.0 21:08:22 25° ESE 21:09:16 27° E 21:12:53 10° NNE
Cosmos 1953 Rocket 3.5 21:05:49 10° N 21:10:18 71° E 21:13:39 18° SSE
Cosmos 2016 Rocket 4.0 21:04:27 10° S 21:10:28 60° E 21:16:36 10° NNE
Cosmos 841 Rocket 3.4 21:07:15 10° S 21:12:25 64° ESE 21:17:36 10° NNE
Cosmos 540 Rocket 4.4 21:12:08 24° ESE 21:13:12 26° E 21:17:27 10° NE
Cosmos 1743 2.7 21:09:34 10° S 21:13:28 85° W 21:17:24 10° N
H-2A R/B 2.4 21:12:09 27° SE 21:13:55 44° ENE 21:17:55 10° N
Cosmos 1697 Rocket 3.3 21:09:13 10° SW 21:14:47 60° WNW 21:20:24 10° NNE
Cosmos 2173 Rocket 4.1 21:15:43 10° S 21:22:05 84° W 21:28:25 10° N
Cosmos 2098 Rocket 3.9 21:15:50 10° S 21:22:10 56° E 21:27:16 10° NNE
ARGOS 4.1 21:20:24 24° E 21:22:21 31° ENE 21:27:04 10° N
Cosmos 1939 Rocket 2.9 21:22:25 22° SSE 21:25:03 87° WSW 21:29:16 10° NNW
Lacrosse 5 3.9 21:22:16 10° WNW 21:26:02 21° WSW 21:29:47 10° S
MetOp-B 4.4 21:25:39 29° SE 21:28:09 52° ENE 21:33:21 10° N
USA 186 4.3 21:26:22 10° SW 21:28:19 17° W 21:30:11 10° NW
Cosmos 1758 Rocket 3.5 21:24:01 10° N 21:28:23 87° W 21:30:56 24° S
BREEZE-M TANK 3.6 21:19:55 10° WNW 21:29:33 45° SW 21:31:15 28° SSE
SL-16 R/B 2.4 21:25:20 10° S 21:30:42 46° ESE 21:36:07 10° NE
Cosmos 372 Rocket 4.2 21:26:23 10° NNW 21:31:24 51° ENE 21:33:14 35° ESE
BREEZE-M DEB (TANK) 4.1 21:30:46 10° WNW 21:34:33 74° SSW 21:40:18 26° SE
SPOT 5 2.8 21:36:37 35° SSE 21:38:37 70° ENE 21:43:17 10° N
Cosmos 1864 Rocket 4.4 21:34:34 16° S 21:39:29 66° E 21:45:34 10° NNE
Cosmos 1980 Rocket 2.7 21:34:08 10° SW 21:39:45 62° WNW 21:45:25 10° NNE
Cosmos 2360 Rocket 3.7 21:42:34 19° ENE 21:42:34 19° ENE 21:44:51 10° NE
YAOGAN 6 2.7 21:42:51 58° E 21:43:03 59° ENE 21:46:45 10° N
deb Chang Zheng 4 3.5 21:41:47 10° NNE 21:46:15 71° ESE 21:47:57 37° S
Terra 3.3 21:47:05 21° ENE 21:47:15 21° ENE 21:50:47 10° NNE
Cosmos 1666 2.9 21:48:56 29° SSW 21:50:43 67° W 21:54:31 10° N
Cosmos 1842 3.9 21:48:58 10° NNW 21:52:47 53° W 21:54:09 34° SSW
Tsikada Rocket 4.0 21:48:16 10° N 21:54:44 86° W 21:58:25 28° S
Cosmos 1707 4.2 21:52:23 10° NNE 21:54:55 26° NE 21:54:55 26° NE
Envisat 3.6 21:52:52 20° S 21:56:10 52° W 22:01:09 10° NNW
CZ-4B R/B 4.3 21:53:45 10° NNE 21:57:06 32° ENE 21:57:06 32° ENE
Cosmos 2263 Rocket 2.1 21:55:01 10° NNW 22:00:37 76° ENE 22:02:03 51° SE
Cosmos 2058 Rocket 3.6 21:59:23 18° SSW 22:02:40 59° WNW 22:07:08 10° N
SL-08 RB Rocket 3.9 22:04:24 54° E 22:04:33 54° ENE 22:09:04 10° N
Cosmos 1816 Rocket 4.5 22:00:13 10° N 22:06:37 87° W 22:09:23 37° S
Cosmos 1725 Rocket 4.2 22:07:38 13° SSW 22:13:10 70° W 22:19:27 10° N
MetOp-A 4.4 22:12:35 39° SSW 22:14:32 64° WSW 22:19:52 10° NNW
Cosmos 2322 Rocket 2.2 22:09:33 10° SSW 22:15:10 78° WNW 22:20:50 10° NNE
BREEZE-M DEB (TANK) 3.0 22:06:22 10° WSW 22:16:46 78° S 22:17:27 64° ESE
Cosmos 2322 4.4 22:27:10 38° ENE 22:27:10 38° ENE 22:31:04 10° NE
Genesis I 4.0 22:24:20 10° NW 22:27:25 51° WNW 22:27:25 51° WNW
SL-19 R/B 4.0 22:25:13 10° NNE 22:30:40 89° WNW 22:31:25 67° SSW
Cosmos 2233 Rocket 4.0 22:30:38 40° SSW 22:33:02 78° W 22:39:20 10° N
Cosmos 1812 Rocket 4.1 22:35:26 54° N 22:35:26 54° N 22:38:50 10° N
H-2A R/B 2.1 22:35:08 62° NE 22:35:08 62° NE 22:39:35 10° N
Meteor 2-5 Rocket 3.8 22:33:05 10° NNW 22:38:59 77° W 22:39:49 65° SSW
Cosmos 405 Rocket 4.2 22:36:56 10° NNW 22:39:45 32° WNW 22:39:45 32° WNW
USA 215 3.5 22:39:52 46° E 22:41:42 63° NNE 22:48:10 10° NW
Meteor 1-24 Rocket 3.8 22:35:51 10° N 22:41:53 69° ENE 22:42:01 69° E
ATLAS CENTAUR R/B 4.3 22:49:06 47° SE 22:49:54 48° ESE 23:09:26 10° NE
H-2A R/B 4.2 22:49:17 17° WSW 22:50:11 18° W 22:53:04 10° NW
COSMOS 2428 4.3 22:54:28 23° NE 22:54:28 23° NE 22:56:44 10° NE
SPOT 1/Viking Rocket 4.3 22:53:57 41° WSW 22:54:31 43° W 22:59:28 10° NNW
Cosmos 540 Rocket 4.5 22:51:51 24° WSW 22:54:35 43° WNW 22:59:30 10° N
Cosmos 2278 Rocket 3.5 22:52:05 10° N 22:57:00 29° NE 22:57:01 29° NE
Cosmos 371 Rocket 4.1 22:59:31 47° WNW 22:59:53 48° WNW 23:04:34 10° NNE
ARGOS 4.0 23:01:56 40° WSW 23:02:28 41° W 23:07:34 10° NNW
Cosmos 2034 Rocket 4.2 23:04:22 59° NE 23:04:22 59° NE 23:09:41 10° NNE
Cosmos 1844 Rocket 3.1 23:05:36 10° NNW 23:10:21 57° NNE 23:10:21 57° NNE
SL-16 R/B 3.8 23:09:56 10° WSW 23:14:59 32° NW 23:20:05 10° NNE
Cosmos 1464 Rocket 4.1 23:23:41 69° W 23:23:50 70° W 23:30:12 10° N
Cosmos 2360 Rocket 2.6 23:24:17 60° NW 23:24:17 60° NW 23:29:43 10° NNE
Terra 3.0 23:25:58 40° NW 23:25:58 40° NW 23:29:19 10° NNW
Cosmos 1844 4.2 23:19:04 10° NNW 23:23:42 53° NNE 23:23:42 53° NNE
Nadezhda 4 Rocket 4.1 23:24:21 10° N 23:30:02 72° N 23:30:02 72° N
Lacrosse 4 Rocket 3.8 23:34:09 20° NNE 23:34:09 20° NNE 23:35:40 10° NNE
Cosmos 2219 Rocket 3.9 23:44:56 24° NE 23:44:56 24° NE 23:47:09 10° NE
Cosmos 2263 Rocket 4.2 23:40:24 10° WNW 23:43:44 17° W 23:43:44 17° W
ATLAS 3B R/B 3.9 23:53:38 34° ENE 23:53:38 34° ENE 23:57:53 10° NE
COSMOS 2455 4.5 23:54:59 24° NE 23:54:59 24° NE 23:57:24 10° NE
ATLAS CENTAUR R/B 4.3 23:50:40 10° N 23:52:41 13° NNE 23:53:10 12° NNE
